Weather in Alpatovo

Russia / Chechen Republic     43°41′56″N   45°14′26″E
temp.,
°C
wind,
m/s
gust,
m/s
humid.,
%
clouds,
%
prec.,
mm/h
press.,
hPa
HPBL,
m
8 march, mon
mon800:000ese484419 0.0 1022314
03:00−1ese375538 0.0 1022284
06:00−1se236394 0.0 1022199
09:00+2e225368 0.0 1020370
12:00+5ne3446100 0.0 10181064
15:00+6ene445385 0.0 10171186
18:00+5e2360100 0.0 1018795
21:00+4se2369100 0.0 1019207
9 march, tue
tue900:00+2sse238384 0.0 101856
03:00+1sse128287 0.0 101822
06:000sse118482 0.0 101822
09:00+4w016589 0.0 1017268
12:00+7ne114226 0.0 10161196
15:00+9ese123613 0.0 10151332
18:00+8nne11390 0.0 101622
21:00+7wnw234332 0.0 1019101
10 march, wed
wed1000:00+4wnw357885 0.0 1020642
03:00+3wnw268293 0.1 1022718
06:00+2nnw2483100 0.2 1023431
09:00+2nw454998 0.3 1024848
12:00+5nw4544100 0.0 10231427
15:00+6nnw4445100 0.0 10221398
18:00+4n3346100 0.0 10231254
21:00+3ne4544100 0.0 1023765
11 march, thu
thu1100:00+1ene5747100 0.0 1022572
03:000ene6854100 0.0 1021781
06:00−3ene5893100 1.4 1022488
09:00−2ene6892100 3.5 1022624
12:00−2ene6893100 1.8 1021666
15:00−3ene7993100 3.8 1021749
18:00−5ene6994100 1.6 1024633
21:00−6ene5894100 3.2 1026602
12 march, fri
fri1200:00−6ne5895100 1.3 1026593
03:00−7ne4793100 2.1 1027573
06:00−8ne4791100 0.4 1030500
09:00−7ene4575100 0.5 1031644
12:00−5ene3370100 0.0 1031860
15:00−4ene3368100 0.0 1031879
18:00−7se227516 0.0 103321
21:00−9se23818 0.0 103532